     2.10           OBSERVATION DATA    G (GPS)             RINEX VERSION / TYPE
teqc 2002Apr3 Duncan Agnew 20050511 23:58:21UTC             PGM / RUN BY / DATE
OSX 5.3|G3|cc|OSX 5.3+|G3+                                  COMMENT
BIT 2 OF LLI FLAGS DATA COLLECTED UNDER A/S CONDITION       COMMENT
IVPN 116                                                    MARKER NAME
6892                                                        MARKER NUMBER
Tim Davis Nolte Engineering                                 OBSERVER / AGENCY
220136892 TRIMBLE 4800 NP 1.20 / SP 1.43                    REC # / TYPE / VERS
N/A TRM4800                                                 ANT # / TYPE
 -2297955.0000 -4853289.0000  3430157.0000                  APPROX POSITION XYZ
        2.0000        0.0000        0.0000                  ANTENNA: DELTA H/E/N
     1     1                                                WAVELENGTH FACT L1/2
     7    C1    L1    L2    P1    P2    S1    S2            # / TYPES OF OBSERV
SNR is mapped to RINEX snr flag value [1-9]                 COMMENT
L1: 3 -> 1; 8 -> 5; 40 -> 9                                 COMMENT
L2: 1 -> 1; 5 -> 5; 60 -> 9                                 COMMENT
  2004     6    29    20    11   40.0000000     GPS         TIME OF FIRST OBS
                                                            END OF HEADER
 04  6 29 20 11 40.0000000  0  6G11G14G15G19G22G25
  22568961.6794     -45073.07459    -28292.40457                  22568958.8114
        47.2504         33.2504
  21429786.6244     139224.91459     86154.08558                  21429783.2714
        51.0004         40.5004
  22815543.4464     218789.18459    138146.83257                  22815542.0034
        48.5004         32.0004
  23955472.6024     149831.45759     94125.74556                  23955470.9624
        38.0004         25.2504
  22671571.4024     133455.25459     82569.78057                  22671568.0964
        48.5004         35.5004
  21106734.9824     -31711.18059    -20086.91658                  21106732.4114
        52.7504         43.2504
 04  6 29 20 11 50.0000000  0  6G11G14G15G19G22G25
  22567012.3284     -55319.61349    -36276.72747                  22567009.3174
        47.5004         32.5004
  21435418.6124     168822.82049    109217.37548                  21435415.5574
        50.5004         39.5004
  22824384.7694     265250.48049    174350.40547                  22824383.3794
        47.5004         32.5004
  23961598.8104     182027.52349    119213.56946                  23961597.5224
        39.2504         25.2504
  22676966.2054     161806.74649    104661.84447                  22676963.3104
        47.5004         34.7504
  21105332.0714     -39084.58649    -25832.43048                  21105329.4514
        54.0004         43.2504
 04  6 29 20 12  0.0000000  0  6G11G14G15G19G22G25
  22565047.1044     -65647.14549    -44324.15747                  22565044.3944
        46.5004         33.5004
  21441030.1904     198312.62949    132196.43748                  21441027.5544
        51.2504         40.2504
  22833206.4954     311610.65649    210475.18747                  22833205.5564
        47.7504         33.0004
  23967706.2024     214118.41849    144219.41947                  23967703.9484
        38.0004         27.7504
  22682341.2594     190051.39149    126670.64847                  22682337.4894
        48.2504         36.5004
  21103914.6654     -46533.12549    -31636.48448                  21103912.2554
        52.7504         44.0004
 04  6 29 20 12 10.0000000  0  6G11G14G15G19G22G25
  22563067.1144     -76051.50849    -52431.46447                  22563064.2694
        45.7504         32.5004
  21446622.5614     227698.32449    155094.37848                  21446619.1544
        50.2504         40.0004
  22842009.8994     357873.71949    246524.30647                  22842008.7574
        48.0004         32.7504
  23973793.3964     246108.10249    169146.43946                  23973791.3184
        40.5004         25.2504
  22687696.3074     218193.26249    148599.36247                  22687693.0944
        48.7504         35.7504
  21102483.4624     -54052.59849    -37495.79848                  21102481.4314
        53.0004         43.2504
 04  6 29 20 12 20.0000000  0  6G11G14G15G19G22G25
  22561074.3704     -86525.30549    -60592.86947                  22561070.9614
        46.5004         33.0004
  21452195.4964     256987.09849    177916.78748                  21452192.4494
        51.0004         39.7504
  22850796.8534     404046.77749    282503.27047                  22850794.9954
        48.0004         31.7504
  23979862.7894     278003.76249    194000.19746                  23979860.6634
        40.5004         25.2504
  22693033.3374     246239.60549    170453.64547                  22693029.7974
        48.7504         35.5004
  21101040.8874     -61635.70349    -43404.71548                  21101038.2954
        54.0004         43.5004
 04  6 29 20 12 30.0000000  0  6G11G14G15G19G22G25
  22559069.2024     -97061.54749    -68802.91547                  22559066.3214
        47.0004         32.7504
  21457752.2534     286185.92249    200669.11148                  21457748.4184
        51.0004         40.0004
  22859566.9714     450136.72349    318417.48147                  22859565.9474
        47.5004         32.2504
  23985916.3804     309812.26649    218786.00146                  23985913.1094
        41.7504         25.2504
  22698354.0774     274197.43849    192238.95247                  22698350.5664
        50.0004         36.5004
  21099586.8174     -69275.32849    -49357.66848                  21099584.6954
        53.7504         44.0004
 04  6 29 20 12 40.0000000  0  6G11G14G15G19G22G25
  22557052.4074    -107661.20749    -77062.39047                  22557049.6164
        45.7504         31.7504
  21463291.1064     315293.59849    223350.40548                  21463287.6834
        51.2504         39.7504
  22868321.4464     496142.43849    354266.07347                  22868320.2654
        47.0004         31.0004
  23991952.2084     341532.41449    243502.97546                  23991948.6734
        41.7504         25.5004
  22703657.1364     302065.74249    213954.51047                  22703653.7434
        49.5004         36.5004
  21098122.3094     -76972.49649    -55355.46048                  21098120.1784
        52.5004         43.2504
 04  6 29 20 12 50.0000000  0  6G11G14G15G19G22G25
  22555024.5044    -118315.92249    -85364.76347                  22555021.7934
        45.5004         33.0004
  21468814.1744     344318.37149    245967.10348                  21468810.9424
        50.0004         39.5004
  22877061.9554     542072.12949    390055.40947                  22877059.8684
        46.5004         31.7504
  23997973.4564     373172.38349    268157.45547                  23997969.8014
        42.7504         26.5004
  22708944.4044     329852.78149    235606.72947                  22708941.6034
        49.5004         37.0004
  21096647.8874     -84718.92249    -61391.63748                  21096645.8384
        52.5004         43.5004
 04  6 29 20 13  0.0000000  0  6G11G14G15G19G22G25
  22552987.4184    -129021.70349    -93706.92447                  22552984.3404
        45.7504         33.5004
  21474322.5004     373264.26649    268522.35848                  21474319.4424
        49.2504         39.5004
  22885788.1674     587929.75449    425788.59347                  22885787.0344
        47.0004         31.2504
  24003980.2094     404736.12549    292752.56747                  24003976.8264
        42.0004         26.5004
  22714217.6254     357562.60549    257198.78447                  22714214.1464
        48.5004         36.0004
  21095165.0204     -92510.52049    -67462.99848                  21095163.1174
        52.2504         43.0004
 04  6 29 20 13 10.0000000  0  6G11G14G15G19G22G25
  22550940.4024    -139776.45749   -102087.25347                  22550937.6394
        44.5004         34.2504
  21479815.9354     402133.06349    291017.50848                  21479812.9004
        49.2504         40.0004
  22894501.5374     633717.05549    461466.98747                  22894499.9814
        46.5004         31.5004
  24009972.3734     436225.33249    317289.58447                  24009968.6194
        42.5004         26.7504
  22719476.3134     385197.14849    278732.16947                  22719473.2154
        49.5004         37.2504
  21093674.3774    -100345.29349    -73568.02148                  21093671.9424
        52.7504         43.7504
 04  6 29 20 13 20.0000000  0  6G11G14G15G19G22G25
  22548885.3744    -150577.94949   -110503.98047                  22548882.8624
        45.7504         33.7504
  21485295.4314     430926.95749    313454.30048                  21485292.5224
        48.7504         39.7504
  22903201.9344     679436.19949    497092.26047                  22903200.7714
        46.7504         31.7504
  24015950.5684     467642.19949    341770.22746                  24015946.9184
        43.0004         25.5004
  22724720.9244     412758.73049    300208.70347                  22724717.8124
        48.0004         37.0004
  21092175.8614    -108220.99649    -79704.93748                  21092173.5034
        52.7504         43.2504
 04  6 29 20 13 30.0000000  0  6G11G14G15G19G22G25
  22546822.6364    -161418.64849   -118951.27747                  22546819.8714
        46.2504         33.5004
  21490761.6894     459653.25849    335838.42748                  21490759.3934
        49.5004         40.0004
  22911889.9154     725094.50049    532670.11847                  22911889.8384
        47.5004         32.0004
  24021916.5984     498993.94949    366200.17146                  24021913.4144
        43.0004         25.0004
  22729953.7594     440254.68849    321634.13147                  22729950.4444
        48.2504         36.7504
  21090670.6854    -116130.10549    -85867.86748                  21090668.5834
        53.0004         43.5004
 04  6 29 20 13 40.0000000  0  6G11G14G15G19G22G25
  22544753.1314    -172293.03149   -127424.80847                  22544750.4664
        46.0004         33.7504
  21496216.4074     488317.39849    358174.10248                  21496213.6184
        50.5004         40.0004
  22920567.7014     770697.30949    568204.75147                  22920567.7254
        46.7504         32.2504
  24027870.8704     530286.01249    390583.59947                  24027868.0394
        42.5004         26.0004
  22735174.1204     467690.54749    343012.69047                  22735170.8904
        49.2504         36.7504
  21089160.3334    -124067.09049    -92052.53948                  21089158.5294
        53.0004         43.0004
 04  6 29 20 13 50.0000000  0  6G11G14G15G19G22G25
  22542676.8784    -183202.88349   -135925.97147                  22542674.3674
        46.2504         33.5004
  21501658.5814     516917.40249    380459.81648                  21501656.2164
        50.0004         40.2504
  22929235.0804     816242.69149    603694.63347                  22929234.8614
        47.5004         32.2504
  24033813.9834     561516.38349    414918.91846                  24033811.0834
        43.2504         25.0004
  22740383.4614     495064.34849    364342.93147                  22740380.6954
        50.2504         36.0004
  21087644.3024    -132033.76649    -98260.31748                  21087642.1984
        53.0004         43.2504
 04  6 29 20 14  0.0000000  0  6G11G14G15G19G22G25
  22540595.3464    -194142.97349   -144450.73347                  22540592.5414
        46.5004         33.2504
  21507089.9524     545458.41049    402699.54348                  21507087.7964
        49.7504         40.7504
  22937892.4994     861735.64149    639143.64347                  22937892.4124
        47.2504         32.5004
  24039745.9714     592690.07849    439210.09746                  24039742.4894
        43.0004         24.2504
  22745581.4564     522381.31649    385628.84447                  22745578.2444
        50.0004         36.5004
  21086123.7134    -140024.94949   -104487.21748                  21086121.3834
        52.5004         44.0004
 04  6 29 20 14 10.0000000  0  6G11G14G15G19G22G25
  22538509.0174    -205108.29749   -152995.12747                  22538505.6084
        47.0004         33.5004
  21512510.6854     573945.31649    424897.12048                  21512509.0944
        49.7504         40.5004
  22946540.2794     907181.10949    674555.67347                  22946540.0234
        47.7504         33.0004
  24045668.4254     623812.05149    463460.97546                  24045664.9274
        44.0004         25.0004
  22750770.2564     549646.43049    406874.38447                  22750766.7674
        50.0004         36.0004
  21084599.6334    -148035.68749   -110729.34748                  21084597.5744
        53.0004         43.2504
 04  6 29 20 14 20.0000000  0  6G11G14G15G19G22G25
  22536417.2404    -216098.18049   -161558.66447                  22536414.4854
        48.5004         34.0004
  21517921.1974     602378.70749    447053.00248                  21517919.2944
        49.2504         40.5004
  22955179.3104     952579.61749    709931.09047                  22955179.6404
        47.0004         33.7504
  24051581.0234     654882.77049    487671.90746                  24051577.4444
        44.5004         25.5004
  22755948.9034     576860.30149    428079.96547                  22755945.6434
        48.7504         36.5004
  21083071.4034    -156065.24649   -116986.14348                  21083068.7704
        52.0004         43.5004
 04  6 29 20 14 30.0000000  0  6G11G14G15G19G22G25
  22534321.1294    -227114.85249   -170143.09247                  22534317.5684
        46.7504         33.7504
  21523321.5554     630756.17649    469165.29548                  21523319.8084
        49.2504         40.0004
  22963808.3224     997928.71949    745268.02847                  22963809.0344
        46.5004         32.7504
  24057483.7154     685899.76649    511840.95747                  24057480.2414
        45.0004         26.0004
  22761117.1114     604020.55549    449243.78747                  22761113.8044
        50.5004         35.5004
  21081539.4494    -164115.90649   -123259.38248                  21081537.0054
        50.7504         43.5004
 04  6 29 20 14 40.0000000  0  6G11G14G15G19G22G25
  22532220.4054    -238155.21549   -178745.95747                  22532216.8394
        47.0004         34.0004
  21528711.6394     659080.64549    491236.30948                  21528709.7504
        49.7504         39.5004
  22972429.5394    1043231.32849    780568.74847                  22972429.7214
        47.2504         32.5004
  24063376.3374     716866.02049    535970.47247                  24063373.2054
        44.7504         27.0004
  22766275.9154     631130.25849    470368.22047                  22766272.6474
        50.0004         35.5004
  21080004.0084    -172184.55549   -129546.62848                  21080001.6924
        48.2504         43.2504
 04  6 29 20 14 50.0000000  0  6G11G14G15G19G22G25
  22530115.3254    -249216.27049   -187364.98247                  22530112.4584
        48.0004         33.7504
  21534092.0844     687354.91849    513268.19148                  21534089.7944
        49.2504         39.7504
  22981041.9314    1088490.24649    815835.39347                  22981042.6854
        45.5004         32.2504
  24069260.3454     747784.18849    560062.51547                  24069257.2514
        44.2504         26.7504
  22771425.9534     658192.36349    491455.53747                  22771422.6224
        49.2504         35.7504
  21078465.6854    -180268.31649   -135845.67048                  21078463.2704
        48.5004         43.5004
 04  6 29 20 15  0.0000000  0  6G11G14G15G19G22G25
  22528006.7594    -260295.69549   -195998.27447                  22528003.9794
        47.5004         33.5004
  21539463.4234     715581.23449    535262.71048                  21539460.6454
        49.0004         39.5004
  22989646.2694    1133707.64549    851069.70547                  22989646.7154
        45.2504         31.0004
  24075134.3024     778656.44549    584118.78447                  24075132.1764
        44.2504         26.5004
  22776566.6904     685209.22749    512507.62747                  22776563.4024
        48.5004         35.2504
  21076925.0414    -188364.84449   -142154.63448                  21076922.8124
        51.0004         43.2504
 04  6 29 20 15 10.0000000  0  6G11G14G15G19G22G25
  22525894.9504    -271393.41049   -204645.83947                  22525892.0434
        48.5004         35.0004
  21544825.5934     743759.55149    557219.83948                  21544822.6564
        50.5004         40.2504
  22998243.1674    1178883.42249    886271.57347                  22998243.2174
        46.2504         30.0004
  24081000.5094     809482.73449    608139.25947                  24080998.6814
        44.0004         27.0004
  22781699.4484     712180.75849    533524.39147                  22781696.2814
        50.2504         35.0004
  21075381.9034    -196474.03549   -148473.48848                  21075379.9544
        53.0004         43.7504
 04  6 29 20 15 20.0000000  0  6G11G14G15G19G22G25
  22523780.0604    -282508.94949   -213307.30747                  22523776.7504
        47.5004         34.0004
  21550178.4614     771890.28949    579139.87248                  21550175.5194
        50.5004         40.5004
  23006832.3334    1224017.96949    921441.32047                  23006831.6634
        45.7504         30.5004
  24086857.6524     840263.39549    632124.16147                  24086855.8944
        42.5004         27.7504
  22786823.4844     739107.41849    554506.18047                  22786819.8504
        50.2504         34.5004
  21073836.4484    -204595.38749   -154801.80648                  21073834.3474
        53.2504         43.7504
 04  6 29 20 15 30.0000000  0  6G11G14G15G19G22G25
  22521661.1214    -293641.65249   -221982.13847                  22521658.2994
        47.7504         34.0004
  21555522.8044     799973.83249    601023.13848                  21555519.2444
        51.0004         41.0004
  23015412.6784    1269111.66449    956579.21847                  23015412.5444
        45.5004         30.7504
  24092706.9334     870998.84849    656073.85547                  24092704.0774
        43.5004         28.0004
  22791939.1324     765989.80949    575453.47947                  22791935.3174
        49.5004         34.5004
  21072288.7164    -212728.27749   -161139.13048                  21072286.3044
        53.5004         44.5004
 04  6 29 20 15 40.0000000  0  6G11G14G15G19G22G25
  22519539.0864    -304790.23049   -230669.33047                  22519536.4914
        48.0004         34.2504
  21560858.1624     828011.44949    622870.62348                  21560855.0194
        51.5004         40.5004
  23023986.4054    1314165.75049    991686.27747                  23023985.7594
        45.7504         29.5004
  24098546.5654     901690.25849    679989.24047                  24098544.5874
        42.5004         27.2504
  22797046.6204     792829.23049    596367.28647                  22797042.7964
        50.0004         34.5004
  21070739.2694    -220871.42649   -167484.42848                  21070736.8814
        53.0004         44.0004
 04  6 29 20 15 50.0000000  0  6G11G14G15G19G22G25
  22517415.8114    -315951.13749   -239366.12347                  22517413.2694
        47.7504         34.5004
  21566185.4294     856006.59849    644685.02448                  21566182.9734
        51.5004         40.0004
  23032552.8994    1359183.63349   1026765.10847                  23032552.1604
        45.7504         29.0004
  24104379.6944     932341.00049    703872.89447                  24104377.6034
        43.5004         28.0004
  22802146.5444     819629.11349    617250.30247                  22802142.5004
        49.7504         33.5004
  21069187.9714    -229021.39549   -173835.04548                  21069186.0874
        51.0004         43.7504
 04  6 29 20 16  0.0000000  0  6G11G14G15G19G22G25
  22515289.6194    -327121.69949   -248070.45347                  22515287.1114
        48.2504         33.7504
  21571505.1574     883961.80149    666468.28948                  21571502.5154
        50.7504         40.2504
  23041113.3364    1404167.70349   1061817.59947                  23041112.1434
        46.0004         29.0004
  24110205.0024     962953.45349    727726.73747                  24110202.6414
        43.0004         28.0004
  22807239.2014     846392.05549    638104.52747                  22807235.4614
        49.0004         33.5004
  21067636.5634    -237175.56649   -180188.94248                  21067634.5054
        48.2504         43.5004
 04  6 29 20 16 10.0010000  0  6G11G14G15G19G22G25
  22513161.6804    -338307.77349   -256786.87947                  22513158.4994
        49.0004         34.0004
  21576817.0544     911874.91049    688218.74648                  21576814.2314
        51.0004         39.7504
  23049667.4204    1449117.55549   1096843.41547                  23049665.7744
        46.5004         29.5004
  24116022.5274     993525.84849    751549.36747                  24116020.6674
        42.5004         27.5004
  22812324.5794     873115.96549    658928.31747                  22812320.7544
        48.5004         32.7504
  21066082.6294    -245339.44149   -186550.40348                  21066080.5374
        50.2504         43.2504
 04  6 29 20 16 20.0010000  0  6G11G14G15G19G22G25
  22511031.1274    -349501.56249   -265509.29747                  22511028.9634
        49.2504         34.5004
  21582120.5394     939745.84449    709936.36148                  21582117.9924
        51.5004         40.0004
  23058213.9944    1494029.70349   1131839.86247                  23058212.2494
        46.5004         29.0004
  24121832.4424    1024057.47749    775340.21347                  24121831.0364
        42.2504         28.5004
  22817402.4084     899801.03149    679721.87447                  22817398.9794
        49.2504         33.0004
  21064528.9484    -253505.72349   -192913.73148                  21064527.0614
        52.7504         43.7504
 04  6 29 20 16 30.0010000  0  6G11G14G15G19G22G25
  22508899.0524    -360706.27349   -274240.23647                  22508896.5554
        49.0004         34.5004
  21587416.0874     967575.17249    731621.53648                  21587413.3394
        51.2504         39.7504
  23066753.4354    1538906.40249   1166808.68347                  23066752.3464
        46.2504         29.5004
  24127634.6294    1054549.14849    799099.94547                  24127633.1954
        42.5004         26.7504
  22822473.1624     926447.78149    700485.55747                  22822470.3554
        49.0004         33.0004
  21062973.8214    -261677.32849   -199281.20848                  21062971.9934
        53.5004         43.7504
 04  6 29 20 16 40.0010000  0  6G11G14G15G19G22G25
  22506766.0394    -371916.84449   -282975.73447                  22506763.0474
        49.5004         34.7504
  21592704.9644     995367.74649    753278.08548                  21592702.4744
        51.0004         40.2504
  23075287.5204    1583752.45349   1201753.61247                  23075286.3864
        46.5004         30.5004
  24133430.7594    1085005.62149    822832.23147                  24133429.3884
        42.0004         27.5004
  22827537.6934     953061.15249    721223.22947                  22827534.0374
        48.5004         32.5004
  21061418.6724    -269849.31249   -205648.99048                  21061416.6874
        53.5004         44.0004
 04  6 29 20 16 50.0010000  0  6G11G14G15G19G22G25
  22504630.3064    -383137.95749   -291719.46347                  22504627.9714
        48.7504         34.2504
  21597985.8814    1023118.85549    774902.31948                  21597982.9594
        51.0004         40.0004
  23083814.7444    1628562.99249   1236670.87147                  23083814.1144
        45.7504         29.0004
  24139218.5894    1115422.07049    846533.34147                  24139217.5724
        41.2504         28.7504
  22832594.7014     979636.40649    741931.19447                  22832591.6094
        47.0004         32.7504
  21059862.4524    -278026.41849   -212020.74348                  21059860.6264
        52.5004         43.0004
 04  6 29 20 17  0.0010000  0  6G11G14G15G19G22G25
  22502493.9434    -394366.39549   -300468.89847                  22502491.3444
        49.5004         34.7504
  21603259.4954    1050831.50449    796496.56748                  21603256.3134
        51.2504         40.0004
  23092335.7474    1673341.00849   1271562.80047                  23092335.0984
        45.5004         29.5004
  24144999.4654    1145801.43449    870205.54847                  24144998.5404
        42.0004         28.5004
  22837645.3674    1006176.64149    762611.86847                  22837641.9314
        48.2504         32.2504
  21058306.2684    -286205.48049   -218394.04748                  21058303.8914
        52.5004         43.0004
 04  6 29 20 17 10.0010000  0  6G11G14G15G19G22G25
  22500355.9704    -405600.12149   -309222.44747                  22500353.0234
        48.2504         34.7504
  21608525.9804    1078507.60549    818062.36348                  21608523.2934
        51.7504         40.2504
  23100850.7784    1718088.46149   1306430.90547                  23100850.5144
        45.7504         29.7504
  24150773.4514    1176145.71949    893850.42147                  24150772.5994
        42.0004         27.2504
  22842689.4644    1032683.95349    783266.91547                  22842686.5314
        48.0004         32.5004
  21056749.9254    -294384.38349   -224767.21048                  21056747.7844
        52.0004         43.2504
 04  6 29 20 17 20.0010000  0  6G11G14G15G19G22G25
  22498217.8044    -416835.14549   -317977.01147                  22498215.5514
        48.7504         33.2504
  21613786.5034    1106151.06649    839602.70047                  21613783.5904
        51.2504         38.7504
  23109361.1804    1762809.19949   1341278.17347                  23109361.3744
        46.0004         28.5004
  24156541.5804    1206458.67249    917470.87947                  24156541.3874
        40.5004         27.2504
  22847728.3054    1059162.28149    803899.32947                  22847724.7034
        46.5004         31.5004
  21055194.3484    -302559.14849   -231137.16548                  21055192.0114
        52.7504         42.0004
 04  6 29 20 17 30.0010000  0  6G11G14G15G19G22G25
  22496080.2284    -428070.28149   -326731.65847                  22496076.9424
        48.0004         34.5004
  21619040.7894    1133762.80949    861118.33247                  21619037.9044
        51.7504         39.2504
  23117866.0194    1807504.19549   1376105.42347                  23117866.2404
        45.7504         30.7504
  24162304.4844    1236741.26649    941067.65547                  24162303.9284
        41.2504         27.5004
  22852761.6544    1085612.59449    824509.96647                  22852758.0224
        47.5004         32.0004
  21053639.5554    -310728.71149   -237503.04648                  21053637.5984
        52.5004         43.0004
 04  6 29 20 17 40.0010000  0  6G11G14G15G19G22G25
  22493941.3814    -439308.96549   -335489.07647                  22493938.1974
        49.5004         34.0004
  21624288.3524    1161339.34049    882606.53848                  21624286.3264
        50.5004         39.7504
  23126365.8334    1852169.86349   1410909.81747                  23126366.3564
        46.0004         30.7504
  24168060.3754    1266989.91449    964637.99647                  24168059.7764
        42.0004         28.0004
  22857788.9664    1112031.46949    845096.08547                  22857785.4134
        47.5004         33.0004
  21052085.6224    -318896.39149   -243867.47648                  21052083.2154
        51.7504         43.0004
 04  6 29 20 17 50.0010000  0  6G11G14G15G19G22G25
  22491802.0584    -450553.48849   -344251.04847                  22491798.8284
        48.2504         34.5004
  21629528.7354    1188878.29749    904065.45748                  21629526.5414
        50.7504         40.0004
  23134859.0984    1896803.76649   1445689.46347                  23134859.7314
        44.7504         29.7504
  24173810.2424    1297202.19549    988180.02147                  24173809.2194
        41.5004         26.7504
  22862809.7684    1138416.62149    865655.91747                  22862806.3764
        48.2504         32.0004
  21050531.1134    -327064.48049   -250232.20848                  21050528.5654
        52.5004         43.0004
 04  6 29 20 18  0.0010000  0  6G11G14G15G19G22G25
  22489661.5974    -461802.59449   -353016.57147                  22489658.3674
        49.5004         34.5004
  21634762.3884    1216380.76649    925495.93948                  21634760.5514
        50.7504         39.5004
  23143347.5794    1941407.03149   1480445.19747                  23143347.5754
        45.2504         30.5004
  24179551.8014    1327379.17649   1011694.50147                  24179551.2194
        41.2504         26.7504
  22867824.5624    1164769.25849    886190.44247                  22867820.5644
        47.0004         32.5004
  21048976.8484    -335231.79749   -256596.34748                  21048974.6064
        53.5004         43.2504
 04  6 29 20 18 10.0010000  0  6G11G14G15G19G22G25
  22487520.3284    -473054.41849   -361784.22647                  22487517.3684
        49.0004         34.2504
  21639989.2204    1243848.52049    946899.38747                  21639986.9174
        51.0004         39.0004
  23151829.0674    1985981.35249   1515178.43047                  23151830.0594
        45.0004         30.2504
  24185288.0274    1357522.60949   1035182.89447                  24185287.1884
        41.5004         27.2504
  22872833.1274    1191091.20749    906701.02747                  22872829.8294
        47.5004         33.2504
  21047423.0264    -343396.56249   -262958.47648                  21047420.6854
        52.7504         43.0004
 04  6 29 20 18 20.0010000  0  6G11G14G15G19G22G25
  22485379.2284    -484305.32049   -370551.15147                  22485376.0644
        48.7504         34.5004
  21645210.2644    1271285.12549    968278.54747                  21645207.7754
        50.7504         38.7504
  23160306.2714    2030530.20349   1549891.76647                  23160307.3004
        45.7504         30.2504
  24191019.1864    1387635.90249   1058647.73047                  24191018.0824
        40.5004         27.5004
  22877836.8564    1217386.03549    927190.48347                  22877833.4644
        46.7504         33.2504
  21045870.5164    -351554.97349   -269315.68448                  21045868.4604
        53.0004         43.5004
 04  6 29 20 18 30.0010000  0  6G11G14G15G19G22G25
  22483238.3164    -495554.35249   -379316.62847                  22483235.5104
        49.7504         34.0004
  21650425.6204    1298691.31649    989634.01647                  21650422.5254
        50.7504         38.2504
  23168778.7564    2075054.27349   1584585.83447                  23168780.0734
        46.0004         29.7504
  24196743.9824    1417719.67249   1082089.61046                  24196742.8494
        40.2504         25.5004
  22882835.8944    1243654.57849    947659.45447                  22882832.4034
        47.0004         32.7504
  21044319.5474    -359706.29349   -275667.36048                  21044316.8924
        53.5004         42.7504
 04  6 29 20 18 40.0010000  0  6G11G14G15G19G22G25
  22481098.0524    -506802.35949   -388081.30747                  22481095.3194
        48.7504         34.5004
  21655635.0074    1326066.17649   1010965.06747                  21655632.1664
        51.5004         38.7504
  23177246.7114    2119552.72749   1619259.92447                  23177247.3834
        45.0004         30.5004
  24202463.2014    1447773.08249   1105507.84147                  24202461.9074
        40.5004         26.5004
  22887828.7234    1269896.04349    968107.34347                  22887826.2744
        48.0004         33.5004
  21042769.5904    -367851.29349   -282014.09948                  21042767.6134
        53.5004         43.7504
 04  6 29 20 18 50.0010000  0  6G11G14G15G19G22G25
  22478958.2364    -518045.84049   -396842.46447                  22478955.5614
        49.0004         34.2504
  21660838.7924    1353413.00049   1032274.26647                  21660835.9254
        50.5004         38.2504
  23185710.4714    2164028.79349   1653916.56947                  23185710.9094
        45.5004         29.2504
  24208176.1654    1477799.32449   1128904.90047                  24208175.7114
        38.7504         26.0004
  22892818.8244    1296113.76649    988536.72447                  22892815.1394
        47.0004         34.0004
  21041221.7724    -375986.53949   -288353.25448                  21041219.5894
        53.5004         43.5004
 04  6 29 20 19  0.0010000  0  6G11G14G15G19G22G25
  22476818.5254    -529291.00049   -405604.91847                  22476815.3434
        49.0004         35.2504
  21666036.0204    1380725.52349   1053556.74347                  21666033.0454
        51.0004         39.2504
  23194169.2474    2208476.09049   1688550.78847                  23194169.0024
        45.7504         30.7504
  24213883.6134    1507792.12949   1152275.90147                  24213883.8844
        38.7504         26.7504
  22897802.0434    1322301.52349   1008942.74947                  22897799.0634
        48.2504         35.0004
  21039674.1704    -384118.18749   -294689.60548                  21039671.9514
        53.0004         44.2504
 04  6 29 20 19 10.0010000  0  6G11G14G15G19G22G25
  22474678.9494    -540535.37949   -414366.77947                  22474675.7764
        48.7504         35.2504
  21671227.5524    1408006.02749   1074814.27347                  21671224.8214
        51.0004         39.0004
  23202621.4534    2252896.90249   1723164.35747                  23202621.2064
        45.2504         29.2504
  24219584.7974    1537753.65649   1175622.49447                  24219585.2224
        39.5004         25.7504
  22902780.3804    1348461.75449   1029327.31547                  22902776.8544
        48.5004         34.5004
  21038128.0064    -392243.79349   -301021.24448                  21038125.8494
        54.0004         44.0004
 04  6 29 20 19 20.0010000  0  6G11G14G15G19G22G25
  22472539.5144    -551777.89849   -423127.18847                  22472536.2854
        49.0004         34.5004
  21676412.8184    1435255.53949   1096047.66047                  21676410.2184
        51.0004         38.5004
  23211069.7834    2297292.20349   1757758.08947                  23211069.7214
        45.5004         29.0004
  24225281.3424    1567684.98049   1198945.57747                  24225281.0224
        40.5004         25.7504
  22907752.9944    1374595.50049   1049691.26547                  22907750.0704
        48.7504         34.2504
  21036582.9684    -400362.27049   -307347.32748                  21036580.5824
        53.7504         44.0004
 04  6 29 20 19 30.0010000  0  6G11G14G15G19G22G25
  22470400.7694    -563017.06649   -431884.97347                  22470397.6404
        50.0004         34.5004
  21681592.3764    1462475.30949   1117257.85947                  21681589.8094
        50.5004         38.2504
  23219513.6914    2341663.26649   1792332.87647                  23219513.1274
        44.5004         29.0004
  24230971.3734    1597587.23849   1222245.99347                  24230971.0394
        40.0004         27.5004
  22912721.6264    1400704.06649   1070035.57647                  22912718.3644
        48.0004         35.2504
  21035039.7544    -408472.25449   -313666.79448                  21035037.7154
        54.7504         44.0004
 04  6 29 20 19 40.0010000  0  6G11G14G15G19G22G25
  22468262.8084    -574252.12949   -440639.55747                  22468259.4564
        49.0004         33.0004
  21686766.5084    1489666.07849   1138445.46247                  21686764.4524
        50.2504         38.2504
  23227952.4964    2386010.74649   1826889.34747                  23227952.0334
        45.0004         27.5004
  24236656.1704    1627461.13749   1245524.31247                  24236655.9724
        41.7504         26.5004
  22917685.0064    1426788.22349   1090360.89247                  22917681.4784
        48.0004         34.0004
  21033497.9154    -416572.89149   -319978.97648                  21033495.8134
        54.5004         43.5004
 04  6 29 20 19 50.0010000  0  6G11G14G15G19G22G25
  22466125.3534    -585484.05149   -449391.72047                  22466122.4064
        49.0004         34.2504
  21691935.1024    1516826.72749   1159609.60147                  21691932.6734
        51.0004         39.0004
  23236386.3444    2430333.50449   1861426.52447                  23236386.5124
        44.0004         27.7504
  24242335.9654    1657305.44549   1268779.56747                  24242334.5204
        41.5004         27.5004
  22922643.7524    1452846.98449   1110666.40347                  22922640.8064
        49.2504         34.7504
  21031958.1534    -424665.19549   -326284.66948                  21031955.8354
        54.5004         44.2504
 04  6 29 20 20  0.0010000  0  6G11G14G15G19G22G25
  22463988.9894    -596711.73849   -458140.56147                  22463985.8284
        49.0004         34.0004
  21697098.1734    1543958.19949   1180751.00147                  21697095.8454
        51.0004         38.7504
  23244816.5014    2474632.38749   1895945.10547                  23244816.4604
        44.7504         28.2504
  24248009.2964    1687121.02749   1292012.45647                  24248008.2284
        41.0004         26.0004
  22927598.0854    1478881.29749   1130952.86647                  22927595.2844
        49.5004         35.0004
  21030420.0674    -432748.18449   -332583.09448                  21030417.8514
        54.2504         44.2504
 04  6 29 20 20 10.0010000  0  6G11G14G15G19G22G25
  22461852.9584    -607934.62549   -466885.66147                  22461850.0094
        49.5004         34.5004
  21702255.5404    1571061.00849   1201870.05047                  21702253.1324
        50.5004         38.7504
  23253242.0624    2518907.91049   1930445.47747                  23253242.0204
        44.2504         29.7504
  24253678.3774    1716908.38349   1315223.32447                  24253676.2124
        41.7504         26.7504
  22932547.6384    1504891.73449   1151220.70147                  22932545.0434
        48.7504         35.5004
  21028883.8244    -440821.16849   -338873.73048                  21028881.9354
        53.5004         44.5004
 04  6 29 20 20 20.0010000  0  6G11G14G15G19G22G25
  22459718.8324    -619151.01649   -475625.70347                  22459715.6254
        49.2504         34.5004
  21707408.4654    1598136.64149   1222967.92847                  21707404.9824
        50.0004         38.5004
  23261662.9064    2563161.57449   1964928.79547                  23261663.1724
        44.0004         29.0004
  24259341.4654    1746668.93049   1338413.35247                  24259339.7984
        41.7504         27.0004
  22937493.3944    1530879.98049   1171471.27047                  22937490.7384
        48.5004         35.0004
  21027349.5314    -448882.57849   -345155.34648                  21027347.6824
        52.7504         44.5004
 04  6 29 20 20 30.0010000  0  6G11G14G15G19G22G25
  22457585.7384    -630359.27049   -484359.40847                  22457582.7994
        49.2504         34.5004
  21712555.4384    1625186.62549   1244045.83647                  21712553.1014
        50.0004         38.5004
  23270080.4764    2607394.82049   1999396.20447                  23270080.2834
        45.0004         28.5004
  24264999.1754    1776404.21149   1361583.64947                  24264998.3324
        41.7504         26.7504
  22942434.5204    1556847.58649   1191705.73547                  22942432.2884
        48.0004         35.0004
  21025818.3464    -456930.86349   -351426.73448                  21025815.8654
        53.7504         44.0004
 04  6 29 20 20 40.0010000  0  6G11G14G15G19G22G25
  22455454.1744    -641562.41049   -493089.12147                  22455451.2234
        49.0004         34.0004
  21717697.5724    1652207.84849   1265101.33347                  21717695.1374
        50.7504         37.7504
  23278493.8154    2651604.49649   2033845.26547                  23278493.3114
        45.0004         29.7504
  24270652.3784    1806111.00849   1384731.78847                  24270651.2104
        41.5004         26.0004
  22947371.5814    1582791.51249   1211921.77247                  22947369.0444
        48.7504         35.2504
  21024288.8364    -464968.92649   -357690.15448                  21024286.6204
        54.0004         44.0004
 04  6 29 20 20 50.0010000  0  6G11G14G15G19G22G25
  22453323.0564    -652761.01649   -501815.31847                  22453320.1124
        49.2504         33.5004
  21722834.0834    1679199.67249   1286133.90747                  21722831.1994
        51.0004         38.0004
  23286901.7324    2695789.94549   2068275.44647                  23286902.4784
        45.5004         29.0004
  24276300.6464    1835788.66049   1407857.20146                  24276298.9874
        42.5004         25.5004
  22952303.6924    1608711.12149   1232118.85247                  22952301.5494
        48.5004         35.0004
  21022761.0724    -472997.33249   -363946.05748                  21022758.2434
        55.0004         43.5004
 04  6 29 20 21  0.0010000  0  6G11G14G15G19G22G25
  22451193.4254    -663951.53949   -510535.20247                  22451190.5184
        49.5004         34.7504
  21727965.3334    1706165.40649   1307146.16047                  21727962.5544
        51.0004         39.0004
  23295305.3014    2739954.50449   2102689.36847                  23295306.4804
        44.0004         29.7504
  24281943.4954    1865440.50849   1430962.52147                  24281941.3064
        42.2504         27.7504
  22957232.5894    1634609.82449   1252299.64047                  22957229.2624
        48.5004         35.5004
  21021235.7634    -481012.66849   -370191.77348                  21021233.3594
        53.5004         44.5004
 04  6 29 20 21 10.0010000  0  6G11G14G15G19G22G25
  22449065.7224    -675133.96149   -519248.77247                  22449062.8584
        50.0004         35.0004
  21733091.7144    1733105.00049   1328138.03947                  21733089.4344
        51.0004         39.2504
  23303706.1304    2784097.94149   2137086.82347                  23303706.6354
        45.5004         29.0004
  24287580.7714    1895066.29749   1454047.53747                  24287579.2614
        42.5004         28.0004
  22962156.7284    1660487.65649   1272464.17447                  22962153.6684
        49.0004         35.5004
  21019713.0244    -489014.87949   -376427.25048                  21019710.3934
        54.5004         44.0004
 04  6 29 20 21 20.0010000  0  6G11G14G15G19G22G25
  22446939.5644    -686304.83649   -527953.34647                  22446936.9954
        49.0004         35.0004
  21738214.2554    1760021.83249   1349112.18448                  21738211.4694
        51.0004         39.5004
  23312103.0454    2828223.64849   2171470.46147                  23312103.5134
        45.7504         30.0004
  24293214.6564    1924669.39149   1477114.85547                  24293212.5514
        42.2504         26.7504
  22967077.9364    1686348.05949   1292615.12047                  22967074.7114
        49.0004         36.0004
  21018193.1034    -497000.52749   -382649.82948                  21018191.0044
        53.5004         44.2504
 04  6 29 20 21 30.0010000  0  6G11G14G15G19G22G25
  22444816.1034    -697468.05949   -536651.96347                  22444812.8034
        49.2504         34.2504
  21743331.2054    1786911.82449   1370065.40647                  21743328.1174
        50.7504         39.2504
  23320496.3504    2872327.51249   2205837.07047                  23320495.7524
        45.2504         29.5004
  24298843.0364    1954245.67649   1500161.26047                  24298840.7644
        42.5004         27.5004
  22971994.8414    1712186.97749   1312749.31347                  22971991.6754
        48.2504         35.5004
  21016676.3514    -504973.52749   -388862.56348                  21016673.7314
        53.5004         43.5004
 04  6 29 20 21 40.0010000  0  6G11G14G15G19G22G25
  22442692.9674    -708622.69149   -545343.87547                  22442690.0524
        49.0004         34.5004
  21748443.0454    1813775.75849   1390998.34247                  21748440.2124
        50.5004         39.0004
  23328884.2904    2916410.34449   2240187.29747                  23328884.2864
        45.7504         29.5004
  24304465.6274    1983795.91049   1523187.40847                  24304463.5064
        42.0004         26.2504
  22976908.0234    1738005.29749   1332867.46747                  22976904.9024
        47.2504         34.7504
  21015161.5944    -512932.92249   -395064.68048                  21015159.5234
        54.0004         43.5004
 04  6 29 20 21 50.0010000  0  6G11G14G15G19G22G25
  22440571.6174    -719768.27049   -554028.73347                  22440569.0804
        48.7504         34.7504
  21753549.9284    1840614.05949   1411911.29548                  21753547.4504
        50.5004         39.7504
  23337269.6114    2960472.48449   2274521.39947                  23337269.4344
        45.2504         30.0004
  24310083.5044    2013320.42249   1546193.50246                  24310082.1934
        40.5004         24.7504
  22981816.9414    1763803.52749   1352969.97147                  22981814.3264
        48.0004         34.5004
  21013649.3834    -520878.32049   -401255.88948                  21013647.0454
        54.7504         43.5004
 04  6 29 20 22  0.0010000  0  6G11G14G15G19G22G25
  22438452.6024    -730903.59049   -562705.60747                  22438449.8674
        49.5004         34.2504
  21758652.8844    1867427.70349   1432805.02347                  21758650.3664
        51.5004         39.0004
  23345649.7144    3004514.89849   2308840.11847                  23345649.7554
        44.7504         28.5004
  24315697.2194    2042820.16849   1569180.26746                  24315694.9614
        41.2504         24.7504
  22986722.8234    1789582.78149   1373057.67147                  22986719.5344
        48.2504         33.5004
  21012140.5174    -528808.63749   -407435.36048                  21012138.1764
        53.7504         43.0004
 04  6 29 20 22 10.0010000  0  6G11G14G15G19G22G25
  22436335.2444    -742030.72349   -571376.08747                  22436332.2914
        49.7504         35.0004
  21763749.9914    1894214.50449   1453677.85747                  21763747.5994
        51.5004         39.0004
  23354027.1524    3048535.28949   2343141.68347                  23354026.8394
        44.7504         29.0004
  24321305.7444    2072292.86749   1592145.97746                  24321303.6184
        41.0004         25.0004
  22991624.3654    1815340.77349   1393128.82047                  22991621.5084
        47.7504         34.0004
  21010633.5844    -536725.94149   -413604.68748                  21010631.4694
        54.0004         43.7504
 04  6 29 20 22 20.0010000  0  6G11G14G15G19G22G25
  22434220.8734    -753143.88349   -580035.70247                  22434218.0984
        50.0004         34.5004
  21768843.2314    1920980.12549   1474534.16647                  21768841.1814
        51.0004         38.7504
  23362400.6784    3092539.27749   2377430.48247                  23362400.7274
        44.7504         29.5004
  24326909.8924    2101744.13349   1615095.02146                  24326908.4764
        40.5004         25.5004
  22996523.1724    1841083.37149   1413187.97447                  22996520.2524
        48.2504         34.7504
  21009130.6374    -544624.35549   -419759.28848                  21009128.5854
        52.7504         44.5004
 04  6 29 20 22 30.0010000  0  6G11G14G15G19G22G25
  22432107.8964    -764248.10549   -588688.33847                  22432104.3954
        50.0004         34.5004
  21773931.8994    1947719.44549   1495369.98548                  21773929.6934
        51.0004         39.5004
  23370769.9364    3136521.75849   2411702.52847                  23370770.2024
        45.0004         28.5004
  24332509.0754    2131168.83249   1638023.25246                  24332507.7024
        40.5004         23.5004
  23001417.9154    1866805.51249   1433231.16847                  23001414.7084
        47.7504         34.5004
  21007630.2564    -552508.98849   -425903.14848                  21007627.7634
        53.2504         44.0004
 04  6 29 20 22 40.0010000  0  6G11G14G15G19G22G25
  22429995.8614    -775343.35549   -597333.98347                  22429993.2474
        50.0004         34.0004
  21779014.7844    1974432.37549   1516185.25448                  21779012.9924
        50.5004         39.5004
  23379135.6884    3180482.57849   2445957.67647                  23379135.9244
        43.5004         29.2504
  24338104.4334    2160566.78149   1660930.79046                  24338102.2154
        41.0004         24.7504
  23006308.5664    1892507.21949   1453258.46247                  23006305.7854
        46.7504         34.0004
  21006132.2494    -560379.78549   -432036.23248                  21006130.3734
        53.7504         44.5004
 04  6 29 20 22 50.0010000  0  6G11G14G15G19G22G25
  22427886.8794    -786427.04349   -605970.63247                  22427883.6514
        49.0004         34.5004
  21784093.6104    2001121.49649   1536981.95447                  21784091.3794
        51.0004         39.2504
  23387498.0174    3224424.27049   2480197.93947                  23387497.8484
        43.7504         28.0004
  24343693.3564    2189940.51649   1683819.38846                  24343691.7624
        41.7504         25.0004
  23011195.9894    1918191.05549   1473271.83847                  23011193.1744
        47.2504         33.7504
  21004638.0004    -568234.19949   -438156.55448                  21004635.8294
        52.2504         44.5004
 04  6 29 20 23  0.0010000  0  6G11G14G15G19G22G25
  22425779.9264    -797499.37149   -614598.41447                  22425776.7734
        49.2504         34.0004
  21789167.8914    2027786.35949   1557759.76247                  21789165.4314
        50.7504         39.0004
  23395855.4474    3268346.38749   2514422.89447                  23395856.1224
        44.5004         28.2504
  24349278.7214    2219289.60549   1706688.80846                  24349276.2714
        41.7504         22.5004
  23016080.3984    1943856.60249   1493270.94847                  23016077.0524
        47.5004         33.5004
  21003146.7134    -576072.48049   -444264.30548                  21003144.6074
        53.5004         44.2504
 04  6 29 20 23 10.0010000  0  6G11G14G15G19G22G25
  22423675.6684    -808556.95749   -623214.70847                  22423672.1684
        50.0004         34.0004
  21794237.8514    2054430.29749   1578521.25847                  21794235.4054
        51.5004         39.0004
  23404211.0984    3312252.16849   2548635.15347                  23404211.7474
        44.0004         28.5004
  24354859.9544    2248617.21549   1729541.46646                  24354856.7944
        42.0004         24.5004
  23020961.0864    1969507.24249   1513258.42547                  23020958.2914
        48.0004         33.5004
  21001658.7584    -583891.25849   -450356.85548                  21001656.6814
        54.0004         44.5004
 04  6 29 20 23 20.0010000  0  6G11G14G15G19G22G25
  22421573.8204    -819602.62549   -631821.71347                  22421571.0144
        49.2504         34.2504
  21799303.9494    2081050.39149   1599264.17948                  21799301.4534
        51.0004         39.5004
  23412562.4444    3356138.65249   2582832.39547                  23412563.1584
        44.2504         29.0004
  24360435.7034    2277920.31349   1752375.04246                  24360433.2124
        42.2504         24.7504
  23025839.0394    1995140.16849   1533232.12747                  23025835.8344
        47.7504         33.7504
  21000174.1644    -591693.33649   -456436.40548                  21000171.9254
        53.5004         45.0004
 04  6 29 20 23 30.0010000  0  6G11G14G15G19G22G25
  22419474.9384    -830632.64149   -640416.51547                  22419471.7794
        48.7504         34.5004
  21804365.6024    2107650.09849   1619991.21548                  21804362.7144
        51.7504         39.7504
  23420910.8064    3400009.30549   2617017.26447                  23420910.6324
        44.7504         29.0004
  24366007.9244    2307202.39549   1775192.21946                  24366005.1424
        41.5004         24.7504
  23030713.8284    2020758.94549   1553194.80647                  23030710.5614
        47.5004         34.0004
  20998693.2074    -599475.10549   -462500.11048                  20998690.8614
        54.2504         45.5004
 04  6 29 20 23 40.0010000  0  6G11G14G15G19G22G25
  22417378.3024    -841649.25049   -649000.90047                  22417375.1824
        48.7504         34.5004
  21809423.1714    2134227.13349   1640700.57448                  21809420.5214
        51.2504         40.0004
  23429255.8994    3443861.79349   2651187.98847                  23429256.0784
        45.0004         28.5004
  24371575.4184    2336461.20349   1797991.26846                  24371573.0654
        41.0004         25.0004
  23035586.4634    2046361.42649   1573144.76947                  23035583.0864
        46.5004         33.5004
  20997215.9624    -607238.71949   -468549.67548                  20997213.5294
        54.0004         45.0004
 04  6 29 20 23 50.0010000  0  6G11G14G15G19G22G25
  22415285.2294    -852648.15649   -657571.46247                  22415282.5314
        49.0004         35.0004
  21814477.2414    2160785.78949   1661395.62048                  21814474.4254
        51.2504         39.7504
  23437597.5604    3487700.33249   2685347.85347                  23437598.5054
        45.2504         30.0004
  24377139.6714    2365700.82849   1820775.35146                  24377137.1254
        41.5004         22.5004
  23040455.8604    2071951.83249   1593085.32147                  23040452.5634
        46.2504         34.0004
  20995742.7544    -614979.89149   -474581.76048                  20995741.0694
        54.5004         44.7504
 04  6 29 20 24  0.0010000  0  6G11G14G15G19G22G25
  22413194.7274    -863636.03149   -666133.43547                  22413192.0954
        49.2504         34.7504
  21819526.3454    2187319.14849   1682070.96848                  21819523.8194
        51.5004         40.2504
  23445936.5474    3531517.97349   2719491.41347                  23445937.0504
        45.0004         29.0004
  24382698.3134    2394914.33249   1843539.09446                  24382696.2824
        42.5004         22.2504
  23045322.2874    2097523.32849   1613011.15047                  23045319.4254
        48.0004         33.5004
  20994272.5054    -622705.38349   -480601.62148                  20994270.7994
        53.5004         44.7504
 04  6 29 20 24 10.0010000  0  6G11G14G15G19G22G25
  22411106.1004    -874612.36749   -674686.42747                  22411103.1244
        49.7504         35.0004
  21824570.4964    2213827.59849   1702726.89648                  21824568.1524
        51.7504         39.5004
  23454270.7664    3575315.10249   2753619.02047                  23454271.5124
        45.0004         30.2504
  24388252.9154    2424102.13349   1866282.87046                  24388250.9564
        42.7504         22.5004
  23050184.9314    2123076.42649   1632922.63547                  23050181.9474
        47.5004         33.0004
  20992805.3704    -630414.62949   -486608.81848                  20992803.3974
        53.2504         44.2504
 04  6 29 20 24 20.0010000  0  6G11G14G15G19G22G25
  22409020.6394    -885570.57449   -683225.29047                  22409018.0024
        49.2504         34.5004
  21829611.4924    2240317.65249   1723368.49948                  21829609.0474
        52.0004         40.0004
  23462602.6144    3619098.14149   2787735.63147                  23462602.9404
        44.7504         29.7504
  24393803.6994    2453270.59449   1889011.51646                  24393801.8024
        42.2504         23.5004
  23055045.4364    2148617.69149   1652824.90447                  23055042.5314
        47.7504         32.5004
  20991342.5424    -638101.05549   -492598.23648                  20991340.4634
        54.2504         44.0004
 04  6 29 20 24 30.0010000  0  6G11G14G15G19G22G25
  22406938.3334    -896512.85549   -691751.74547                  22406935.7984
        48.7504         34.7504
  21834648.5824    2266787.00449   1743993.95847                  21834646.3444
        51.0004         39.2504
  23470930.7254    3662864.77749   2821839.45547                  23470931.8474
        45.5004         29.5004
  24399349.9354    2482417.39549   1911723.27446                  24399348.3724
        42.2504         23.2504
  23059902.8504    2174144.87149   1672716.20447                  23059899.7794
        46.0004         32.2504
  20989883.5404    -645766.95349   -498571.65948                  20989881.5644
        52.0004         44.0004
 04  6 29 20 24 40.0010000  0  6G11G14G15G19G22G25
  22404858.7664    -907439.52349   -700266.03047                  22404856.5804
        48.7504         34.5004
  21839681.1274    2293235.10949   1764602.87047                  21839678.5034
        51.5004         39.2504
  23479256.2354    3706614.43849   2855930.07547                  23479257.2834
        45.2504         30.5004
  24404891.8464    2511541.95749   1934417.69446                  24404890.6894
        41.2504         23.0004
  23064757.9424    2199657.46549   1692596.13347                  23064755.0504
        47.0004         32.7504
  20988428.7634    -653412.73449   -504529.40948                  20988426.7884
        52.0004         44.0004
 04  6 29 20 24 50.0010000  0  6G11G14G15G19G22G25
  22402782.9124    -918349.85249   -708767.58847                  22402780.1504
        49.0004         34.2504
  21844710.1714    2319662.65649   1785195.75347                  21844707.5094
        52.0004         39.2504
  23487578.5594    3750347.78549   2890007.95747                  23487578.9214
        44.5004         29.5004
  24410430.1774    2540644.88749   1957095.29246                  24410429.1404
        42.2504         25.0004
  23069610.0704    2225156.16849   1712465.22947                  23069607.4844
        48.2504         33.0004
  20986977.7834    -661037.56249   -510470.84148                  20986975.8304
        52.0004         44.0004
 04  6 29 20 25  0.0010000  0  6G11G14G15G19G22G25
  22400710.5124    -929241.50849   -717254.58247                  22400707.5974
        49.2504         34.2504
  21849735.9804    2346071.85949   1805774.33247                  21849732.8244
        51.7504         39.0004
  23495897.9354    3794066.94549   2924074.79647                  23495897.9404
        43.7504         29.5004
  24415964.6644    2569728.34849   1979757.67947                  24415963.6034
        41.2504         26.0004
  23074459.9384    2250643.35549   1732325.36247                  23074457.2354
        48.0004         32.7504
  20985531.3364    -668639.14849   -516394.15148                  20985529.4824
        52.5004         44.2504
 04  6 29 20 25 10.0010000  0  6G11G14G15G19G22G25
  22398640.5094    -940116.73449   -725728.79147                  22398637.8624
        49.0004         33.7504
  21854757.4254    2372460.36349   1826336.79647                  21854754.3494
        52.0004         39.0004
  23504214.0814    3837769.56349   2958128.75047                  23504214.5334
        44.7504         28.5004
  24421494.5384    2598789.92649   2002403.05647                  24421493.5844
        43.2504         26.5004
  23079307.4674    2276116.77749   1752174.75547                  23079304.6444
        47.5004         32.5004
  20984088.7484    -676219.68449   -522301.06448                  20984086.2674
        53.2504         43.7504
 04  6 29 20 25 20.0010000  0  6G11G14G15G19G22G25
  22396574.6824    -950973.11349   -734188.30047                  22396572.2544
        49.7504         34.5004
  21859775.4434    2398830.59049   1846885.01047                  21859772.7444
        50.7504         39.0004
  23512527.1254    3881457.94549   2992171.60447                  23512527.9604
        43.5004         28.0004
  24427021.4994    2627831.90249   2025033.18446                  24427020.4894
        41.0004         25.0004
  23084152.5824    2301578.81649   1772015.28347                  23084149.7854
        46.0004         33.0004
  20982650.8944    -683776.74649   -528189.67548                  20982648.7724
        53.7504         44.0004
 04  6 29 20 25 30.0010000  0  6G11G14G15G19G22G25
  22394512.0814    -961812.31649   -742634.43647                  22394509.5894
        48.7504         34.7504
  21864789.7354    2425180.74649   1867417.57948                  21864787.0934
        51.5004         39.5004
  23520838.0014    3925130.17249   3026201.87247                  23520837.9884
        43.5004         29.0004
  24432544.0894    2656852.49649   2047646.58747                  24432542.6554
        41.5004         26.2504
  23088995.2414    2327027.70749   1791845.59047                  23088992.3734
        47.2504         32.7504
  20981216.8904    -691312.10949   -534061.38948                  20981214.2754
        53.7504         43.7504
 04  6 29 20 25 40.0010000  0  6G11G14G15G19G22G25
  22392453.6064    -972630.91849   -751064.52247                  22392450.7044
        50.0004         34.7504
  21869800.8424    2451513.93049   1887936.94547                  21869798.3554
        51.5004         39.2504
  23529146.3264    3968789.56649   3060222.14247                  23529146.0964
        44.0004         27.2504
  24438062.5814    2685854.84849   2070245.76447                  24438061.6654
        41.5004         26.7504
  23093836.5014    2352466.77349   1811668.21047                  23093833.1154
        48.0004         32.7504
  20979787.9844    -698822.34849   -539913.52048                  20979785.6364
        54.2504         44.5004
 04  6 29 20 25 50.0010000  0  6G11G14G15G19G22G25
  22390398.1554    -983430.67249   -759479.90747                  22390395.4904
        48.5004         34.5004
  21874808.0724    2477828.38749   1908441.70447                  21874806.5264
        50.5004         39.2504
  23537451.8234    4012434.16849   3094230.89147                  23537451.4844
        43.7504         26.7504
  24443577.8584    2714837.02749   2092829.29747                  24443576.6564
        41.5004         26.5004
  23098674.6984    2377894.21949   1831481.77447                  23098671.9034
        48.5004         33.0004
  20978363.0694    -706309.33649   -545747.53348                  20978360.5224
        54.0004         44.5004
 04  6 29 20 26  0.0010000  0  6G11G14G15G19G22G25
  22388346.2144    -994213.02749   -767881.73647                  22388343.6034
        48.2504         34.2504
  21879811.9184    2504122.47349   1928930.59448                  21879809.7474
        51.0004         39.5004
  23545753.6654    4056062.37549   3128226.86247                  23545753.2524
        44.2504         27.0004
  24449088.9854    2743797.41849   2115395.78747                  24449087.5664
        42.0004         26.2504
  23103511.1854    2403308.47749   1851285.07347                  23103507.9734
        48.2504         33.2504
  20976942.5474    -713774.63349   -551564.65248                  20976939.9904
        54.2504         44.2504
 04  6 29 20 26 10.0010000  0  6G11G14G15G19G22G25
  22386298.7704   -1004973.23449   -776266.31947                  22386296.1324
        49.5004         34.5004
  21884812.5274    2530400.91849   1949407.29848                  21884810.4624
        50.2504         39.5004
  23554053.3394    4099678.77749   3162213.64247                  23554053.4294
        44.5004         26.7504
  24454597.0294    2772740.67249   2137948.92747                  24454595.3394
        42.0004         26.7504
  23108345.8974    2428714.39849   1871081.88447                  23108342.4744
        47.5004         34.0004
  20975527.0704    -721213.33649   -557361.03348                  20975524.3534
        54.7504         44.0004
 04  6 29 20 26 20.0010000  0  6G11G14G15G19G22G25
  22384255.4574   -1015713.09849   -784635.03847                  22384252.7044
        49.0004         35.0004
  21889809.3934    2556661.83249   1969870.33647                  21889807.4914
        50.7504         39.0004
  23562350.9204    4143281.43449   3196189.70247                  23562351.1704
        45.0004         27.2504
  24460101.1964    2801664.76649   2160487.16947                  24460099.7994
        40.7504         26.2504
  23113178.6944    2454110.10949   1890870.73747                  23113175.0864
        47.5004         34.2504
  20974116.2444    -728627.33649   -563138.17748                  20974113.9034
        53.5004         44.2504
 04  6 29 20 26 30.0010000  0  6G11G14G15G19G22G25
  22382215.1734   -1026431.80549   -792987.28947                  22382213.1764
        48.7504         34.0004
  21894804.0204    2582905.86349   1990320.21747                  21894801.6604
        50.7504         38.7504
  23570645.8284    4186871.03549   3230155.57947                  23570645.6564
        45.0004         27.2504
  24465601.1294    2830570.33649   2183010.94247                  24465600.4484
        41.0004         26.5004
  23118009.4694    2479496.30149   1910652.16147                  23118006.2834
        49.0004         33.0004
  20972710.2204    -736015.84849   -568895.45548                  20972708.1574
        54.5004         44.0004
 04  6 29 20 26 40.0010000  0  6G11G14G15G19G22G25
  22380179.6274   -1037131.74249   -801324.88547                  22380176.6204
        48.7504         35.2504
  21899794.3054    2609130.45749   2010754.95147                  21899791.6874
        50.5004         38.7504
  23578937.9414    4230444.96949   3264109.25947                  23578937.3964
        44.7504         29.0004
  24471098.3084    2859454.81349   2205518.34247                  24471097.6074
        40.0004         27.5004
  23122838.1604    2504870.55549   1930424.30047                  23122834.3594
        49.2504         33.5004
  20971308.1014    -743381.27349   -574634.74548                  20971305.9554
        54.0004         44.5004
 04  6 29 20 26 50.0010000  0  6G11G14G15G19G22G25
  22378148.3514   -1047806.31649   -809642.75047                  22378145.4374
        49.0004         35.2504
  21904782.2484    2635342.18049   2031179.66247                  21904779.2094
        49.5004         38.2504
  23587228.5854    4274009.66449   3298055.72947                  23587228.0494
        45.5004         27.0004
  24476592.1174    2888324.64549   2228014.22347                  24476591.2704
        40.7504         26.2504
  23127665.3724    2530239.43849   1950192.25547                  23127662.1914
        46.0004         33.5004
  20969912.3604    -750716.94549   -580350.84248                  20969910.1104
        53.2504         44.2504
 04  6 29 20 27  0.0010000  0  6G11G14G15G19G22G25
  22376121.0554   -1058458.81649   -817943.40347                  22376118.2794
        49.0004         35.2504
  21909767.1414    2661537.69949   2051591.74747                  21909764.1964
        50.2504         38.2504
  23595515.7994    4317561.81349   3331992.42847                  23595515.7774
        44.0004         28.5004
  24482082.1254    2917176.41449   2250496.11847                  24482081.8974
        39.5004         26.5004
  23132491.4324    2555599.66449   1969953.43447                  23132487.9834
        47.5004         34.2504
  20968521.3634    -758026.21549   -586046.38448                  20968519.3344
        54.0004         44.7504
